| time (UTC) | temp C | wind direction | speed KPH | gust KPH | rain 1hr cm | rain 24hr cm | rain mn cm | humidity % | barometer mb |
| 20260505152305 | 23 | 195 | 6.4 | 16.1 | 0.00 | 0.00 | 0.00 | 47 | 985.2 |
| 20260505152053 | 23 | 246 | 8.0 | 20.9 | 0.00 | 0.00 | 0.00 | 49 | 985.1 |
| 20260505151301 | 24 | 246 | 8.0 | 20.9 | 0.00 | 0.00 | 0.00 | 47 | 985.2 |
| 20260505150801 | 24 | 315 | 6.4 | 17.7 | 0.00 | 0.00 | 0.00 | 49 | 985.2 |
| 20260505150301 | 23 | 272 | 6.4 | 12.9 | 0.00 | 0.00 | 0.00 | 48 | 985.1 |
| 20260505140302 | 21 | 219 | 4.8 | 11.3 | 0.00 | 0.00 | 0.00 | 54 | 985.5 |
| 20260505124800 | 17 | 207 | 3.2 | 9.7 | 0.00 | 0.00 | 0.00 | 64 | 986.1 |
| 20260505124301 | 17 | 219 | 3.2 | 11.3 | 0.00 | 0.00 | 0.00 | 63 | 986.1 |
| 20260505123802 | 17 | 265 | 4.8 | 11.3 | 0.00 | 0.00 | 0.00 | 65 | 986.1 |
| 20260505123300 | 17 | 205 | 4.8 | 9.7 | 0.00 | 0.00 | 0.00 | 64 | 986.1 |
| 20260505123047 | 17 | 223 | 4.8 | 11.3 | 0.00 | 0.00 | 0.00 | 65 | 986.1 |
| 20260505122305 | 16 | 279 | 4.8 | 11.3 | 0.00 | 0.00 | 0.00 | 66 | 986.0 |
| 20260505121801 | 16 | 208 | 3.2 | 9.7 | 0.00 | 0.00 | 0.00 | 66 | 986.0 |
| 20260505121302 | 16 | 356 | 3.2 | 9.7 | 0.00 | 0.00 | 0.00 | 66 | 985.9 |
| 20260505120801 | 16 | 318 | 3.2 | 12.9 | 0.00 | 0.00 | 0.00 | 67 | 985.9 |
| 20260505120301 | 16 | 242 | 4.8 | 12.9 | 0.00 | 0.00 | 0.00 | 68 | 985.8 |
| 20260505115801 | 16 | 295 | 3.2 | 9.7 | 0.00 | 0.00 | 0.00 | 68 | 985.8 |
| 20260505115304 | 16 | 271 | 3.2 | 8.0 | 0.00 | 0.00 | 0.00 | 68 | 985.6 |
| 20260505114802 | 16 | 204 | 3.2 | 8.0 | 0.00 | 0.00 | 0.00 | 68 | 985.6 |
| 20260505114533 | 15 | 208 | 3.2 | 6.4 | 0.00 | 0.00 | 0.00 | 69 | 985.6 |
| 20260505114038 | 15 | 196 | 3.2 | 6.4 | 0.00 | 0.00 | 0.00 | 69 | 985.6 |
| 20260505113301 | 15 | 205 | 3.2 | 6.4 | 0.00 | 0.00 | 0.00 | 69 | 985.5 |
| 20260505112816 | 15 | 245 | 3.2 | 6.4 | 0.00 | 0.00 | 0.00 | 70 | 985.4 |
| 20260505112810 | 15 | 257 | 3.2 | 6.4 | 0.00 | 0.00 | 0.00 | 70 | 985.5 |
| 20260505112039 | 15 | 198 | 3.2 | 6.4 | 0.00 | 0.00 | 0.00 | 70 | 985.4 |
| 20260505111302 | 15 | 246 | 3.2 | 6.4 | 0.00 | 0.00 | 0.00 | 69 | 985.3 |
| 20260505110802 | 15 | 300 | 3.2 | 6.4 | 0.00 | 0.00 | 0.00 | 70 | 985.3 |
| 20260505110303 | 15 | 288 | 3.2 | 4.8 | 0.00 | 0.00 | 0.00 | 71 | 985.2 |
| 20260505101802 | 15 | 202 | 3.2 | 8.0 | 0.00 | 0.00 | 0.00 | 71 | 984.9 |
| 20260505101302 | 15 | 285 | 3.2 | 8.0 | 0.00 | 0.00 | 0.00 | 70 | 984.8 |
| 20260505100816 | 15 | 222 | 3.2 | 8.0 | 0.00 | 0.00 | 0.00 | 70 | 984.8 |
| 20260505100809 | 15 | 202 | 3.2 | 8.0 | 0.00 | 0.00 | 0.00 | 70 | 984.8 |
| 20260505100043 | 15 | 222 | 3.2 | 8.0 | 0.00 | 0.00 | 0.00 | 70 | 984.7 |
| 20260505095537 | 15 | 295 | 3.2 | 6.4 | 0.00 | 0.00 | 0.00 | 70 | 984.7 |
| 20260505094802 | 15 | 101 | 3.2 | 9.7 | 0.00 | 0.00 | 0.00 | 69 | 984.7 |
| 20260505094301 | 15 | 228 | 3.2 | 9.7 | 0.00 | 0.00 | 0.00 | 70 | 984.7 |
| 20260505093800 | 15 | 238 | 3.2 | 8.0 | 0.00 | 0.00 | 0.00 | 69 | 984.7 |
| 20260505093303 | 15 | 178 | 3.2 | 12.9 | 0.00 | 0.00 | 0.00 | 69 | 984.7 |
| 20260505092754 | 15 | 204 | 4.8 | 12.9 | 0.00 | 0.00 | 0.00 | 68 | 984.7 |
| 20260505092255 | 15 | 250 | 4.8 | 11.3 | 0.00 | 0.00 | 0.00 | 68 | 984.6 |
| 20260505092036 | 15 | 285 | 3.2 | 8.0 | 0.00 | 0.00 | 0.00 | 70 | 984.6 |
| 20260505091256 | 15 | 85 | 3.2 | 9.7 | 0.00 | 0.00 | 0.00 | 70 | 984.6 |
| 20260505091016 | 15 | 238 | 3.2 | 9.7 | 0.00 | 0.00 | 0.00 | 71 | 984.6 |
| 20260505090240 | 15 | 343 | 1.6 | 4.8 | 0.00 | 0.00 | 0.00 | 71 | 984.6 |
| 20260505085740 | 15 | 303 | 3.2 | 8.0 | 0.00 | 0.00 | 0.00 | 71 | 984.5 |
| 20260505085240 | 15 | 318 | 3.2 | 8.0 | 0.00 | 0.00 | 0.00 | 70 | 984.6 |
| 20260505084740 | 15 | 237 | 3.2 | 6.4 | 0.00 | 0.00 | 0.00 | 71 | 984.6 |
| 20260505084230 | 15 | 314 | 1.6 | 6.4 | 0.00 | 0.00 | 0.00 | 70 | 984.6 |
| 20260505084001 | 15 | 246 | 1.6 | 3.2 | 0.00 | 0.00 | 0.00 | 71 | 984.5 |
| 20260505083230 | 15 | 227 | 1.6 | 6.4 | 0.00 | 0.00 | 0.00 | 70 | 984.4 |
| 20260505082730 | 15 | 305 | 1.6 | 6.4 | 0.00 | 0.00 | 0.00 | 70 | 984.4 |
| 20260505082503 | 15 | 212 | 1.6 | 4.8 | 0.00 | 0.00 | 0.00 | 71 | 984.4 |
| 20260505081730 | 15 | 274 | 1.6 | 4.8 | 0.00 | 0.00 | 0.00 | 71 | 984.4 |
| 20260505081229 | 15 | 269 | 1.6 | 4.8 | 0.00 | 0.00 | 0.00 | 71 | 984.4 |
| 20260505080729 | 15 | 194 | 1.6 | 3.2 | 0.00 | 0.00 | 0.00 | 71 | 984.4 |
| 20260505080230 | 15 | 286 | 1.6 | 3.2 | 0.00 | 0.00 | 0.00 | 72 | 984.4 |
| 20260505075729 | 15 | 162 | 3.2 | 4.8 | 0.00 | 0.00 | 0.00 | 71 | 984.4 |
| 20260505075229 | 15 | 140 | 3.2 | 4.8 | 0.00 | 0.00 | 0.00 | 70 | 984.4 |
| 20260505074730 | 16 | 218 | 3.2 | 4.8 | 0.00 | 0.00 | 0.00 | 69 | 984.4 |
| 20260505074230 | 16 | 204 | 3.2 | 6.4 | 0.00 | 0.00 | 0.00 | 68 | 984.3 |
| 20260505073731 | 16 | 205 | 3.2 | 6.4 | 0.00 | 0.00 | 0.00 | 68 | 984.3 |
| 20260505073230 | 16 | 154 | 3.2 | 6.4 | 0.00 | 0.00 | 0.00 | 67 | 984.3 |
| 20260505072730 | 16 | 190 | 3.2 | 4.8 | 0.00 | 0.00 | 0.00 | 66 | 984.4 |
| 20260505072230 | 16 | 183 | 3.2 | 6.4 | 0.00 | 0.00 | 0.00 | 66 | 984.4 |
| 20260505071729 | 16 | 281 | 3.2 | 6.4 | 0.00 | 0.00 | 0.00 | 66 | 984.4 |
| 20260505071230 | 16 | 240 | 1.6 | 4.8 | 0.00 | 0.00 | 0.00 | 66 | 984.6 |
| 20260505070730 | 16 | 298 | 1.6 | 6.4 | 0.00 | 0.00 | 0.00 | 66 | 984.4 |
| 20260505070522 | 16 | 209 | 1.6 | 4.8 | 0.00 | 0.00 | 0.00 | 66 | 984.6 |
| 20260505070239 | 16 | 111 | 1.6 | 6.4 | 0.00 | 0.00 | 0.00 | 66 | 984.5 |
| 20260505065230 | 16 | 227 | 3.2 | 8.0 | 0.00 | 0.00 | 0.00 | 65 | 984.7 |
| 20260505065004 | 16 | 257 | 3.2 | 9.7 | 0.00 | 0.00 | 0.00 | 66 | 984.6 |
| 20260505064600 | 16 | 240 | 3.2 | 9.7 | 0.00 | 0.00 | 0.00 | 65 | 984.6 |
| 20260505064555 | 16 | 277 | 4.8 | 9.7 | 0.00 | 0.00 | 0.00 | 65 | 984.5 |
| 20260505063230 | 16 | 221 | 3.2 | 8.0 | 0.00 | 0.00 | 0.00 | 65 | 984.6 |
| 20260505062730 | 16 | 307 | 3.2 | 6.4 | 0.00 | 0.00 | 0.00 | 66 | 984.6 |
| 20260505062230 | 16 | 254 | 3.2 | 9.7 | 0.00 | 0.00 | 0.00 | 65 | 984.6 |
| 20260505061729 | 16 | 241 | 3.2 | 9.7 | 0.00 | 0.00 | 0.00 | 66 | 984.6 |
| 20260505061228 | 15 | 5 | 1.6 | 3.2 | 0.00 | 0.00 | 0.00 | 67 | 984.6 |
| 20260505060728 | 15 | 236 | 1.6 | 3.2 | 0.00 | 0.00 | 0.00 | 67 | 984.6 |
| 20260505060229 | 15 | 211 | 1.6 | 3.2 | 0.00 | 0.00 | 0.00 | 66 | 984.6 |
| 20260505055728 | 15 | 169 | 0.0 | 3.2 | 0.00 | 0.00 | 0.00 | 67 | 984.7 |
| 20260505055233 | 15 | 220 | 0.0 | 1.6 | 0.00 | 0.00 | 0.00 | 66 | 984.7 |
| 20260505054740 | 15 | 262 | 1.6 | 9.7 | 0.00 | 0.00 | 0.00 | 64 | 984.6 |
| 20260505054734 | 15 | 0 | 1.6 | 4.8 | 0.00 | 0.00 | 0.00 | 66 | 984.6 |
| 20260505054726 | 15 | 353 | 1.6 | 4.8 | 0.00 | 0.00 | 0.00 | 65 | 984.6 |
| 20260505053514 | 15 | 231 | 3.2 | 9.7 | 0.00 | 0.00 | 0.00 | 64 | 984.6 |
| 20260505052729 | 15 | 48 | 3.2 | 6.4 | 0.00 | 0.00 | 0.00 | 64 | 984.7 |
| 20260505052228 | 15 | 215 | 3.2 | 6.4 | 0.00 | 0.00 | 0.00 | 64 | 984.6 |
| 20260505052014 | 15 | 344 | 1.6 | 6.4 | 0.00 | 0.00 | 0.00 | 63 | 984.6 |
| 20260505051514 | 15 | 0 | 1.6 | 8.0 | 0.00 | 0.00 | 0.00 | 63 | 984.7 |
| 20260505051013 | 15 | 318 | 3.2 | 8.0 | 0.00 | 0.00 | 0.00 | 63 | 984.6 |
| 20260505050512 | 15 | 139 | 3.2 | 8.0 | 0.00 | 0.00 | 0.00 | 61 | 984.6 |
| 20260505041729 | 16 | 266 | 3.2 | 8.0 | 0.00 | 0.00 | 0.00 | 57 | 984.6 |
| 20260505041230 | 16 | 193 | 1.6 | 6.4 | 0.00 | 0.00 | 0.00 | 58 | 984.4 |
| 20260505040730 | 16 | 322 | 1.6 | 6.4 | 0.00 | 0.00 | 0.00 | 57 | 984.4 |
| 20260505040518 | 16 | 279 | 1.6 | 6.4 | 0.00 | 0.00 | 0.00 | 56 | 984.4 |
| 20260505035731 | 16 | 326 | 1.6 | 6.4 | 0.00 | 0.00 | 0.00 | 56 | 984.5 |
| 20260505035514 | 16 | 155 | 1.6 | 9.7 | 0.00 | 0.00 | 0.00 | 56 | 984.4 |
| 20260505034730 | 16 | 144 | 1.6 | 9.7 | 0.00 | 0.00 | 0.00 | 56 | 984.3 |
| 20260505034516 | 16 | 166 | 3.2 | 9.7 | 0.00 | 0.00 | 0.00 | 55 | 984.2 |
| 20260505034016 | 16 | 207 | 3.2 | 9.7 | 0.00 | 0.00 | 0.00 | 54 | 984.1 |
| 20260505033229 | 17 | 141 | 3.2 | 9.7 | 0.00 | 0.00 | 0.00 | 55 | 984.1 |
| 20260505032729 | 17 | 168 | 3.2 | 12.9 | 0.00 | 0.00 | 0.00 | 53 | 984.2 |
| 20260505032229 | 17 | 220 | 3.2 | 12.9 | 0.00 | 0.00 | 0.00 | 53 | 984.3 |
| 20260505031729 | 17 | 255 | 3.2 | 8.0 | 0.00 | 0.00 | 0.00 | 53 | 984.2 |
| 20260505031231 | 17 | 185 | 3.2 | 8.0 | 0.00 | 0.00 | 0.00 | 53 | 984.2 |
| 20260505030730 | 17 | 202 | 3.2 | 8.0 | 0.00 | 0.00 | 0.00 | 52 | 984.3 |
| 20260505030230 | 17 | 259 | 3.2 | 8.0 | 0.00 | 0.00 | 0.00 | 52 | 984.3 |
| 20260505025730 | 17 | 203 | 4.8 | 11.3 | 0.00 | 0.00 | 0.00 | 52 | 984.3 |
| 20260505025230 | 17 | 184 | 3.2 | 11.3 | 0.00 | 0.00 | 0.00 | 52 | 984.3 |
| 20260505025013 | 17 | 158 | 3.2 | 9.7 | 0.00 | 0.00 | 0.00 | 53 | 984.4 |
| 20260505024520 | 17 | 251 | 3.2 | 9.7 | 0.00 | 0.00 | 0.00 | 52 | 984.4 |
| 20260505023729 | 17 | 212 | 3.2 | 8.0 | 0.00 | 0.00 | 0.00 | 52 | 984.4 |
| 20260505023516 | 17 | 286 | 3.2 | 8.0 | 0.00 | 0.00 | 0.00 | 52 | 984.4 |
| 20260505022729 | 17 | 217 | 3.2 | 9.7 | 0.00 | 0.00 | 0.00 | 52 | 984.4 |
| 20260505022230 | 16 | 0 | 3.2 | 9.7 | 0.00 | 0.00 | 0.00 | 52 | 984.3 |
| 20260505021731 | 16 | 320 | 3.2 | 9.7 | 0.00 | 0.00 | 0.00 | 52 | 984.5 |
| 20260505021230 | 16 | 181 | 1.6 | 8.0 | 0.00 | 0.00 | 0.00 | 53 | 984.6 |
| 20260505020731 | 16 | 306 | 1.6 | 6.4 | 0.00 | 0.00 | 0.00 | 54 | 984.7 |
| 20260505020231 | 16 | 220 | 1.6 | 9.7 | 0.00 | 0.00 | 0.00 | 55 | 984.7 |
| 20260505020013 | 16 | 250 | 1.6 | 9.7 | 0.00 | 0.00 | 0.00 | 54 | 984.8 |
| 20260505015232 | 16 | 0 | 1.6 | 6.4 | 0.00 | 0.00 | 0.00 | 54 | 984.7 |
| 20260505015017 | 16 | 107 | 1.6 | 4.8 | 0.00 | 0.00 | 0.00 | 52 | 984.7 |
| 20260505014230 | 17 | 4 | 1.6 | 6.4 | 0.00 | 0.00 | 0.00 | 52 | 984.7 |
| 20260505013731 | 17 | 209 | 3.2 | 6.4 | 0.00 | 0.00 | 0.00 | 50 | 984.7 |
| 20260505013232 | 17 | 20 | 1.6 | 4.8 | 0.00 | 0.00 | 0.00 | 50 | 984.6 |
| 20260505012731 | 17 | 48 | 3.2 | 8.0 | 0.00 | 0.00 | 0.00 | 49 | 984.4 |
| 20260505012232 | 17 | 148 | 3.2 | 8.0 | 0.00 | 0.00 | 0.00 | 48 | 984.4 |
| 20260505011732 | 17 | 148 | 3.2 | 8.0 | 0.00 | 0.00 | 0.00 | 49 | 984.3 |
| 20260505011230 | 17 | 139 | 3.2 | 8.0 | 0.00 | 0.00 | 0.00 | 47 | 984.3 |
| 20260505010731 | 17 | 306 | 3.2 | 8.0 | 0.00 | 0.00 | 0.00 | 47 | 984.2 |
| 20260505010519 | 17 | 215 | 3.2 | 9.7 | 0.00 | 0.00 | 0.00 | 47 | 984.2 |
| 20260505010056 | 18 | 159 | 3.2 | 11.3 | 0.00 | 0.00 | 0.00 | 46 | 984.1 |
| 20260505005754 | 17 | 278 | 3.2 | 11.3 | 0.00 | 0.00 | 0.00 | 46 | 984.2 |
| 20260505004728 | 17 | 210 | 3.2 | 11.3 | 0.00 | 0.00 | 0.00 | 47 | 984.1 |
| 20260505004227 | 18 | 147 | 1.6 | 6.4 | 0.00 | 0.00 | 0.00 | 46 | 984.1 |
| 20260505003724 | 18 | 205 | 3.2 | 8.0 | 0.00 | 0.00 | 0.00 | 46 | 984.1 |
| 20260505003224 | 18 | 214 | 3.2 | 8.0 | 0.00 | 0.00 | 0.00 | 46 | 984.0 |
| 20260505002723 | 18 | 160 | 3.2 | 9.7 | 0.00 | 0.00 | 0.00 | 45 | 984.0 |
| 20260505002224 | 18 | 310 | 3.2 | 9.7 | 0.00 | 0.00 | 0.00 | 45 | 983.9 |
| 20260505001724 | 18 | 208 | 4.8 | 9.7 | 0.00 | 0.00 | 0.00 | 45 | 983.9 |
| 20260505001224 | 18 | 226 | 4.8 | 11.3 | 0.00 | 0.00 | 0.00 | 45 | 983.9 |
| 20260505000724 | 18 | 267 | 4.8 | 11.3 | 0.00 | 0.00 | 0.00 | 45 | 983.9 |
| 20260505000226 | 18 | 190 | 3.2 | 9.7 | 0.00 | 0.00 | 0.00 | 45 | 983.9 |
| 20260504235725 | 18 | 0 | 3.2 | 9.7 | 0.00 | 0.00 | 0.00 | 45 | 983.9 |
| 20260504235222 | 18 | 200 | 4.8 | 9.7 | 0.00 | 0.00 | 0.00 | 44 | 983.8 |
| 20260504234722 | 18 | 162 | 4.8 | 11.3 | 0.00 | 0.00 | 0.00 | 44 | 983.8 |
| 20260504234511 | 18 | 134 | 4.8 | 11.3 | 0.00 | 0.00 | 0.00 | 44 | 983.8 |
| 20260504234010 | 19 | 193 | 3.2 | 11.3 | 0.00 | 0.00 | 0.00 | 44 | 983.7 |
| 20260504233221 | 19 | 280 | 4.8 | 17.7 | 0.00 | 0.00 | 0.00 | 44 | 983.7 |
| 20260504233010 | 19 | 218 | 6.4 | 17.7 | 0.00 | 0.00 | 0.00 | 44 | 983.6 |
| 20260504232222 | 19 | 180 | 6.4 | 17.7 | 0.00 | 0.00 | 0.00 | 44 | 983.7 |
| 20260504231722 | 19 | 222 | 6.4 | 17.7 | 0.00 | 0.00 | 0.00 | 43 | 983.7 |
| 20260504231223 | 19 | 164 | 6.4 | 16.1 | 0.00 | 0.00 | 0.00 | 43 | 983.7 |
| 20260504231012 | 20 | 188 | 6.4 | 20.9 | 0.00 | 0.00 | 0.00 | 44 | 983.7 |
| 20260504230222 | 20 | 318 | 6.4 | 20.9 | 0.00 | 0.15 | 0.00 | 42 | 983.7 |
| 20260504225719 | 20 | 222 | 6.4 | 20.9 | 0.00 | 0.15 | 0.00 | 42 | 983.7 |
| 20260504225219 | 20 | 263 | 6.4 | 20.9 | 0.00 | 0.15 | 0.00 | 42 | 983.7 |
| 20260504224720 | 20 | 183 | 6.4 | 20.9 | 0.00 | 0.15 | 0.00 | 42 | 983.6 |
| 20260504224220 | 20 | 197 | 6.4 | 14.5 | 0.00 | 0.15 | 0.00 | 43 | 983.7 |
| 20260504223719 | 20 | 182 | 8.0 | 14.5 | 0.00 | 0.15 | 0.00 | 40 | 983.7 |
| 20260504223220 | 20 | 307 | 8.0 | 22.5 | 0.00 | 0.15 | 0.00 | 40 | 983.7 |
| 20260504223009 | 20 | 289 | 8.0 | 22.5 | 0.00 | 0.15 | 0.00 | 42 | 983.7 |
| 20260504222219 | 20 | 159 | 8.0 | 19.3 | 0.00 | 0.15 | 0.00 | 41 | 983.6 |
| 20260504221720 | 20 | 220 | 8.0 | 19.3 | 0.00 | 0.15 | 0.00 | 41 | 983.7 |
| 20260504221220 | 20 | 149 | 8.0 | 19.3 | 0.00 | 0.15 | 0.00 | 40 | 983.8 |
| 20260504220720 | 20 | 202 | 8.0 | 19.3 | 0.00 | 0.18 | 0.00 | 39 | 983.8 |
| 20260504220220 | 20 | 173 | 6.4 | 19.3 | 0.00 | 0.18 | 0.00 | 41 | 983.8 |
| 20260504220009 | 20 | 294 | 8.0 | 19.3 | 0.00 | 0.18 | 0.00 | 39 | 983.8 |
| 20260504215218 | 21 | 208 | 6.4 | 14.5 | 0.00 | 0.18 | 0.00 | 39 | 983.9 |
| 20260504215007 | 20 | 241 | 8.0 | 24.1 | 0.00 | 0.18 | 0.00 | 39 | 983.8 |
| 20260504214217 | 20 | 220 | 9.7 | 24.1 | 0.00 | 0.18 | 0.00 | 41 | 983.8 |
| 20260504214007 | 21 | 175 | 6.4 | 14.5 | 0.00 | 0.18 | 0.00 | 39 | 983.8 |
| 20260504213218 | 21 | 201 | 6.4 | 14.5 | 0.00 | 0.18 | 0.00 | 41 | 983.8 |
| 20260504212719 | 20 | 230 | 6.4 | 14.5 | 0.00 | 0.18 | 0.00 | 41 | 983.8 |
| 20260504212218 | 20 | 200 | 6.4 | 14.5 | 0.00 | 0.18 | 0.00 | 40 | 983.8 |
| 20260504211718 | 20 | 260 | 6.4 | 17.7 | 0.00 | 0.18 | 0.00 | 40 | 983.8 |
| 20260504211218 | 20 | 169 | 6.4 | 17.7 | 0.00 | 0.18 | 0.00 | 41 | 983.9 |
| 20260504210719 | 21 | 182 | 6.4 | 17.7 | 0.00 | 0.18 | 0.00 | 42 | 983.8 |
| 20260504210216 | 20 | 226 | 6.4 | 17.7 | 0.00 | 0.18 | 0.00 | 43 | 983.8 |
| 20260504205712 | 21 | 176 | 6.4 | 14.5 | 0.00 | 0.18 | 0.00 | 40 | 983.8 |
| 20260504205213 | 20 | 229 | 6.4 | 14.5 | 0.00 | 0.18 | 0.00 | 40 | 983.8 |
| 20260504204712 | 21 | 213 | 6.4 | 16.1 | 0.00 | 0.18 | 0.00 | 39 | 983.8 |
| 20260504204212 | 21 | 252 | 8.0 | 16.1 | 0.00 | 0.18 | 0.00 | 41 | 983.8 |
| 20260504203713 | 21 | 292 | 4.8 | 11.3 | 0.00 | 0.18 | 0.00 | 38 | 983.8 |
| 20260504203213 | 21 | 194 | 4.8 | 12.9 | 0.00 | 0.18 | 0.00 | 40 | 983.9 |
| 20260504202713 | 21 | 231 | 6.4 | 14.5 | 0.00 | 0.18 | 0.00 | 40 | 983.9 |
| 20260504202213 | 20 | 265 | 6.4 | 14.5 | 0.00 | 0.18 | 0.00 | 40 | 984.0 |
| 20260504201713 | 20 | 184 | 8.0 | 22.5 | 0.00 | 0.18 | 0.00 | 43 | 984.0 |
| 20260504201213 | 20 | 227 | 9.7 | 22.5 | 0.00 | 0.18 | 0.00 | 42 | 984.1 |
| 20260504201007 | 20 | 309 | 6.4 | 19.3 | 0.00 | 0.18 | 0.00 | 42 | 984.1 |
| 20260504200211 | 21 | 146 | 6.4 | 19.3 | 0.00 | 0.18 | 0.00 | 39 | 984.2 |
| 20260504195707 | 21 | 58 | 6.4 | 19.3 | 0.00 | 0.18 | 0.00 | 38 | 984.3 |
| 20260504195207 | 21 | 217 | 6.4 | 14.5 | 0.00 | 0.18 | 0.00 | 41 | 984.3 |
| 20260504194957 | 21 | 161 | 6.4 | 17.7 | 0.00 | 0.18 | 0.00 | 42 | 984.3 |
| 20260504194208 | 21 | 182 | 8.0 | 17.7 | 0.00 | 0.18 | 0.00 | 42 | 984.4 |
| 20260504193958 | 21 | 299 | 8.0 | 17.7 | 0.00 | 0.18 | 0.00 | 39 | 984.3 |
| 20260504193208 | 21 | 175 | 6.4 | 14.5 | 0.00 | 0.18 | 0.00 | 38 | 984.5 |
| 20260504192711 | 21 | 199 | 4.8 | 12.9 | 0.00 | 0.18 | 0.00 | 40 | 984.6 |
| 20260504192209 | 21 | 10 | 6.4 | 22.5 | 0.00 | 0.18 | 0.00 | 40 | 984.6 |
| 20260504191708 | 20 | 228 | 8.0 | 22.5 | 0.00 | 0.18 | 0.00 | 40 | 984.7 |
| 20260504191211 | 20 | 216 | 8.0 | 19.3 | 0.00 | 0.18 | 0.00 | 40 | 984.7 |
| 20260504190954 | 20 | 114 | 8.0 | 19.3 | 0.00 | 0.18 | 0.00 | 39 | 984.8 |
| 20260504190205 | 21 | 205 | 6.4 | 17.7 | 0.00 | 0.18 | 0.00 | 37 | 984.8 |
| 20260504185705 | 20 | 197 | 6.4 | 20.9 | 0.00 | 0.18 | 0.00 | 41 | 984.9 |
| 20260504185204 | 20 | 197 | 6.4 | 20.9 | 0.00 | 0.18 | 0.00 | 39 | 984.9 |
| 20260504184703 | 20 | 207 | 8.0 | 17.7 | 0.00 | 0.18 | 0.00 | 41 | 985.0 |
| 20260504184204 | 20 | 165 | 8.0 | 17.7 | 0.00 | 0.18 | 0.00 | 44 | 985.1 |
| 20260504183704 | 20 | 200 | 8.0 | 17.7 | 0.00 | 0.18 | 0.00 | 41 | 985.1 |
| 20260504183203 | 20 | 292 | 6.4 | 14.5 | 0.00 | 0.18 | 0.00 | 40 | 985.0 |
| 20260504182701 | 20 | 205 | 6.4 | 17.7 | 0.00 | 0.18 | 0.00 | 40 | 985.2 |
| 20260504182201 | 20 | 210 | 6.4 | 17.7 | 0.00 | 0.18 | 0.00 | 42 | 985.4 |
| 20260504181701 | 20 | 215 | 6.4 | 17.7 | 0.00 | 0.18 | 0.00 | 39 | 985.4 |
| 20260504181200 | 20 | 179 | 6.4 | 17.7 | 0.00 | 0.18 | 0.00 | 40 | 985.5 |
| 20260504180700 | 20 | 300 | 8.0 | 16.1 | 0.00 | 0.18 | 0.00 | 40 | 985.5 |
| 20260504180200 | 20 | 260 | 8.0 | 16.1 | 0.00 | 0.18 | 0.00 | 44 | 985.7 |
| 20260504175701 | 20 | 160 | 6.4 | 16.1 | 0.00 | 0.18 | 0.00 | 42 | 985.6 |
| 20260504175201 | 19 | 293 | 6.4 | 17.7 | 0.00 | 0.18 | 0.00 | 42 | 985.8 |
| 20260504174701 | 19 | 340 | 6.4 | 17.7 | 0.00 | 0.18 | 0.00 | 40 | 985.8 |
| 20260504174201 | 20 | 252 | 6.4 | 17.7 | 0.00 | 0.18 | 0.00 | 43 | 985.9 |
| 20260504173701 | 20 | 274 | 6.4 | 14.5 | 0.00 | 0.18 | 0.00 | 40 | 985.9 |
| 20260504173202 | 19 | 221 | 6.4 | 12.9 | 0.00 | 0.18 | 0.00 | 42 | 986.0 |
| 20260504172701 | 19 | 337 | 6.4 | 17.7 | 0.00 | 0.18 | 0.00 | 42 | 986.1 |
| 20260504172201 | 18 | 285 | 8.0 | 17.7 | 0.00 | 0.18 | 0.00 | 43 | 986.1 |
| 20260504171701 | 18 | 239 | 6.4 | 14.5 | 0.00 | 0.18 | 0.00 | 41 | 986.2 |
| 20260504171202 | 19 | 193 | 6.4 | 16.1 | 0.00 | 0.18 | 0.00 | 40 | 986.2 |
| 20260504170701 | 18 | 288 | 6.4 | 16.1 | 0.00 | 0.18 | 0.00 | 43 | 986.4 |
| 20260504170202 | 19 | 312 | 6.4 | 16.1 | 0.00 | 0.18 | 0.00 | 42 | 986.5 |
| 20260504160202 | 17 | 204 | 6.4 | 17.7 | 0.00 | 0.18 | 0.00 | 44 | 987.0 |